310P/Hill (2023)

Japanese version
Home page
Updated on January 28, 2024

---------------------------------------------------------------------

* Profile

* Pictures

* Orbital Elements

Epoch 2023 Sept. 13.0 TT = JDT 2460200.5
T 2023 Oct. 23.71936 TT                                 Rudenko
q   2.4166814            (2000.0)            P               Q
n   0.11497712     Peri.   31.62289     +0.76202819     -0.64658579
a   4.1885313      Node     8.92134     +0.53662660     +0.60013305
e   0.4230241      Incl.   13.12386     +0.36241541     +0.47092158
P   8.57
>From 299 observations 2006 Aug. 29-2023 Aug. 24, mean residual 0".6.

* Magnitudes Graph

        m1 = 12.3 + 5 log d + 13.0 log r

---------------------------------------------------------------------

The orbital elements are published on M.P.E.C. 2023-Q150.
The magnitudes graphs are made with Comet for Windows.

---------------------------------------------------------------------

Copyright(C) Seiichi Yoshida (comet@aerith.net). All rights reserved.